Weather Roundup
Issued by NWS Chicago, IL

Home | Current Version | Previous Version | Graphics & Text | Print | Product List | Glossary On
Versions: 1 2 3 4 5 6 7 8 9 10 11 12 13 14 15 16 17 18 19 20 21 22 23 24 25 26 27 28 29 30 31 32 33 34 35 36 37 38 39 40 41 42 43 44 45 46 47 48 49 50
000
NZUS59 KLOT 140306
HRRLOT

CHICAGO AREA WEATHER ROUNDUP
NATIONAL WEATHER SERVICE CHICAGO/ROMEOVILLE IL
1000 PM CDT SUN JUL 13 2014

NOTE: "FAIR" INDICATES FEW OR NO CLOUDS BELOW 12,000 FEET WITH NO
SIGNIFICANT WEATHER AND/OR OBSTRUCTIONS TO VISIBILITY.

* THESE STATIONS ARE NOT UNDER NWS QUALITY CONTROL. THEY ALSO MAY NOT
  REPORT WEATHER SUCH AS PRECIPITATION OR FOG.

ILZ005-006-012>014-019>023-140400-
NORTHEAST ILLINOIS

CITY           SKY/WX    TMP DP  RH WIND       PRES   REMARKS
OHARE          PTCLDY    76  64  66 W10       29.89R
MIDWAY         MOCLDY    77  65  66 W12       29.90R
AURORA         PTCLDY    69  65  86 W5        29.92R
LANSING*       CLOUDY    73  65  76 W6        29.91R
JOLIET*        MOCLDY    72  66  83 CALM      29.92R
WAUKEGAN       CLEAR     71  60  68 N3        29.89R
DUPAGE AIRPORT PTCLDY    73  63  70 W7        29.91R
WHEELING       CLEAR     78  63  59 NW9       29.90R HX  80
KANKAKEE*      CLOUDY    73  69  86 W5        29.94R
MORRIS*        PTCLDY    71  70  97 W3        29.91S
LEWIS AIRPORT* MOCLDY    71  67  89 W6        29.92R
NORTHERLY IS     N/A     77  62  59 W7          N/A
$$

WIZ051-052-058>065-066-070>072-140400-
SOUTHEAST WISCONSIN

CITY           SKY/WX    TMP DP  RH WIND       PRES   REMARKS
MILWAUKEE      PTCLDY    71  59  65 N7        29.90R
KENOSHA*       CLEAR     67  62  84 NE3       29.90R
RACINE*        PTCLDY    70  61  73 CALM      29.91R
BURLINGTON     PTCLDY    65  62  90 CALM      29.91R
WAUKESHA       PTCLDY    66  54  63 NW5       29.92R
WEST BEND      CLEAR     63  48  59 CALM      29.91R
$$

INZ001>003-010>013-019-020-140400-
NORTHWEST INDIANA

CITY           SKY/WX    TMP DP  RH WIND       PRES   REMARKS
GARY*          CLOUDY    79  63  58 SW3       29.90S HX  80
MICHIGAN CITY* NOT AVBL
RENSSELAER*    NOT AVBL
VALPARAISO     MOCLDY    74  66  76 SW7       29.91S
$$

LMZ740>746-140400-
SOUTHERN LAKE MICHIGAN

STATION/POSITION TIME  SKY/WX   TEMP WIND        PRES    VSBY
                                AIR  DIR/SP/G
                 (UTC)          (F)  (DEG/KT/KT) (MB)    (MI)
HARRISON CRIB    0300            77  240/ 14/ 17   N/A
BURNHAM HARBOR   0300            77  240/  8/ 11   N/A
CALUMET HARBOR   0300            77  220/  5/ 10 1013.2R
BURNS HARBOR     NOT AVBL
MICHIGAN CITY    0300            76  190/ 11/ 14   N/A
$$

ABBREVIATIONS USED IN REMARKS
   TC - TEMPERATURE IN CELSIUS
  WCI - WIND CHILL INDEX
   HX - HEAT INDEX
  VSB - VISIBILITY
$$


USA.gov is the U.S. government's official web portal to all federal, state and local government web resources and services.